Location: Couloubroux
(44.3000°N, 6.4000°E)
Time: 23:03:07
(UTC+00:00)

Daily predictions for brighter satellites

Satellite Brightness Start Highest point End
(mag) Time Altitude Azimuth Time Altitude Azimuth Time Altitude Azimuth
CZ-4C R/B 3.9 17:31:43 10° N 17:35:56 69° WNW 17:39:57 10° SSW
USA 267 3.4 17:29:32 10° ESE 17:36:00 65° NNE 17:42:29 10° NW
SL-4 R/B 2.6 17:33:06 10° NW 17:37:24 52° NNE 17:41:56 10° E
Cosmos 1626 2.9 17:33:52 10° NNW 17:37:26 56° W 17:40:58 10° S
Cosmos 1805 3.2 17:36:44 10° S 17:40:34 66° E 17:44:25 10° NNE
Cosmos 1242 Rocket 2.6 17:38:17 10° SSW 17:41:50 84° W 17:45:23 10° N
Cosmos 1697 Rocket 4.1 17:41:37 10° SW 17:46:55 42° WNW 17:52:15 10° NNE
CZ-4 R/B 2.6 17:43:53 10° ESE 17:47:16 25° ENE 17:50:41 10° NNE
ISS -3.5 17:44:05 10° WNW 17:47:28 72° SSW 17:50:48 10° SE
Cosmos 2082 4.1 17:42:12 10° NNW 17:47:56 72° WSW 17:53:37 10° SSE
BREEZE M DEB (TANK) 4.2 17:41:30 10° SSW 17:49:51 33° SSE 17:53:03 11° E
Okean 2 4.0 17:46:31 10° NNW 17:50:38 61° W 17:54:41 10° S
Cosmos 1908 Rocket 4.2 17:48:28 10° SSE 17:52:17 31° E 17:56:07 10° NNE
Meteor 2-21 4.5 17:46:53 10° S 17:52:45 56° E 17:58:38 10° NNE
MOS 1-B 4.4 17:47:31 10° SSE 17:53:13 60° ENE 17:58:56 10° N
Cosmos 1733 3.4 17:50:21 10° SSW 17:54:04 75° W 17:57:49 10° N
Cosmos 2360 Rocket 3.7 17:51:26 10° SE 17:54:21 14° E 17:57:17 10° ENE
SL-14 R/B 3.2 17:50:48 10° N 17:54:47 73° E 17:58:46 10° SSE
Cosmos 1809 Rocket 4.4 17:51:18 10° S 17:57:20 75° E 18:03:26 10° NNE
Cosmos 1766 3.4 17:56:37 10° S 18:00:25 52° E 18:04:16 10° NNE
Meteor 2-10 4.2 17:56:16 10° S 18:01:54 85° E 18:07:25 10° NNE
Cosmos 1674 Rocket 3.5 17:59:36 10° N 18:04:02 75° E 18:08:28 10° SSE
YAOGAN 1 2.7 18:01:12 10° SSE 18:05:24 54° ENE 18:09:38 10° N
Cosmos 1025 Rocket 4.5 18:03:29 10° NNE 18:06:31 18° ENE 18:07:57 16° E
Cosmos 968 Rocket 3.8 18:02:02 10° S 18:06:59 45° ESE 18:11:58 10° NNE
Okean O Rocket 1.8 18:05:05 10° SE 18:09:16 48° ENE 18:13:30 10° N
IRIDIUM 106 4.3 18:05:48 10° S 18:10:57 64° E 18:16:07 10° N
Lacrosse 4 Rocket 2.5 18:08:38 10° SSE 18:11:51 23° ESE 18:13:56 16° ENE
Nadezhda 4 Rocket 4.0 18:07:59 10° S 18:14:15 69° E 18:20:31 10° NNE
Meteor 1-15 Rocket 4.3 18:10:37 10° S 18:16:01 55° E 18:21:26 10° NNE
Meteor 2-5 Rocket 4.0 18:11:06 10° N 18:16:22 42° ENE 18:21:36 10° SE
USA 186 3.3 18:22:41 21° ENE 18:22:41 21° ENE 18:25:02 10° NNE
Cosmos 1726 2.7 18:19:01 10° SSW 18:22:36 59° W 18:26:14 10° N
Cosmos 2322 Rocket 2.6 18:17:36 10° S 18:22:50 39° ESE 18:28:05 10° NE
Cosmos 2285 Rocket 4.0 18:16:30 10° NNW 18:22:52 74° ENE 18:29:16 10° SSE
Cosmos 1470 3.0 18:23:38 10° SSE 18:27:15 42° E 18:30:54 10° NNE
CZ-4B R/B 3.3 18:22:20 10° SSE 18:27:43 82° WSW 18:33:15 10° NNW
Cosmos 1980 Rocket 3.6 18:23:47 10° SW 18:29:01 39° WNW 18:34:17 10° NNE
Cosmos 1378 Rocket 4.2 18:26:15 10° NNW 18:30:33 56° W 18:34:47 10° S
Cosmos 1975 Rocket 3.7 18:27:43 10° N 18:31:45 34° ENE 18:33:09 27° ESE
ARGOS Delta rocket 4.3 18:27:01 10° N 18:32:14 70° WNW 18:37:08 10° SSW
Cosmos 2292 Rocket 3.6 18:32:07 10° S 18:37:26 75° E 18:41:27 10° NNE
USA 215 4.1 18:38:04 10° NE 18:44:14 46° NNW 18:50:24 10° W
Cosmos 1844 Rocket 3.0 18:45:34 10° NNW 18:51:04 48° ENE 18:52:59 35° ESE
SL-16 R/B 2.2 18:47:21 10° SSW 18:53:00 88° WNW 18:58:44 10° NNE
Cosmos 1092 Rocket 3.9 18:49:26 10° S 18:55:45 80° E 19:02:01 10° N
Cosmos 1570 Rocket 4.2 18:51:06 10° NNW 18:56:22 73° WSW 19:00:57 13° S
Landsat 5 3.6 18:52:18 10° NNE 18:56:46 60° E 19:01:07 10° S
Resurs 01 Rocket 3.5 19:01:19 17° NE 19:01:19 17° NE 19:02:59 10° NNE
SJ-6B 2.7 19:02:07 60° NE 19:02:07 60° NE 19:05:35 10° N
Cosmos 1437 Rocket 3.9 19:01:27 10° SSW 19:05:01 42° WNW 19:08:36 10° N
H-2A R/B 4.4 19:07:12 16° NNE 19:07:12 16° NNE 19:08:16 10° N
Cosmos 2278 Rocket 4.3 19:03:29 10° NNE 19:05:36 12° NE 19:05:41 12° NE
Cosmos 2263 Rocket 4.2 19:05:09 10° NW 19:09:53 28° WSW 19:14:37 10° SSW
Resurs 1-3 3.8 19:11:26 51° NE 19:11:26 51° NE 19:15:14 10° N
Meteor 1-24 Rocket 3.7 19:06:24 10° NNW 19:11:44 76° W 19:16:12 15° S
SL-4 R/B 3.1 19:12:36 10° WNW 19:16:54 44° SW 19:17:52 38° S
USA 267 4.1 19:14:27 17° SSE 19:19:10 43° SW 19:25:23 10° WNW
Cosmos 2084 Rocket 3.4 19:16:19 10° NW 19:19:51 70° WNW 19:19:51 70° WNW
Okean-O 2.4 19:20:29 84° ESE 19:20:36 86° ENE 19:25:03 10° NNW
CZ-4 R/B 3.3 19:18:21 10° SSW 19:22:04 31° W 19:25:48 10° NNW
Cosmos 1486 Rocket 3.9 19:17:04 10° SSW 19:22:23 81° ESE 19:27:44 10° NNE
OBJECT-B 3.6 19:24:56 11° NNW 19:24:56 11° NNW 19:25:05 10° NNW
ISS -0.7 19:23:13 10° WSW 19:23:39 10° SW 19:24:06 10° SW
IGS 5A 3.5 19:24:37 76° W 19:24:37 76° W 19:28:41 10° NNW
Cosmos 1844 3.5 19:20:03 10° NNW 19:25:38 74° ENE 19:26:13 67° ESE
DNEPR-1 R/B 4.0 19:22:09 10° SW 19:26:47 76° NW 19:30:36 20° NNE
Cosmos 2333 Rocket 4.3 19:23:43 10° S 19:36:34 - NNE 19:24:21 13° S
Cosmos 1300 Rocket 3.8 19:30:15 65° NNW 19:30:15 65° NNW 19:34:05 10° N
CSL-04 Debris 4.4 19:28:02 30° S 19:30:44 67° WSW 19:36:08 10° NNW
S3M 4.4 19:24:57 10° N 19:30:09 44° NE 19:30:09 44° NE
Cosmos 2360 Rocket 2.1 19:31:54 10° SSW 19:37:33 83° WNW 19:43:14 10° NNE
Cosmos 1025 Rocket 4.1 19:40:14 10° NNW 19:44:18 41° W 19:44:51 39° WSW
Okean O Rocket 4.3 19:43:03 10° SW 19:45:53 17° W 19:48:43 10° NW
Lacrosse 4 Rocket 2.8 19:46:28 10° WSW 19:50:14 36° NW 19:50:17 35° NW
Cosmos 1417 Rocket 4.3 19:45:16 10° N 19:51:04 77° NE 19:51:04 77° NE
ATLAS 2AS CENTAUR R/B 4.3 19:55:12 10° NNW 20:00:30 21° NNE 20:01:35 20° NNE
Cosmos 1553 Rocket 4.4 19:58:54 10° NNW 20:05:10 62° W 20:06:33 50° SW
Cosmos 2322 Rocket 3.7 20:01:42 10° WSW 20:06:54 35° NW 20:12:08 10° N
NOSS 3-4 (A) 4.1 20:05:57 10° NNW 20:12:04 54° NNE 20:12:04 54° NNE
NOSS 3-4 (C) 4.1 20:06:03 10° NNW 20:12:10 53° NNE 20:12:10 53° NNE
NOSS 3-3 (A) 4.4 20:15:17 10° SW 20:20:03 53° WNW 20:20:03 53° WNW
NOSS 3-3 (C) 4.5 20:15:22 10° SW 20:19:58 51° W 20:19:58 51° W
USA 281 4.4 20:27:40 31° NNE 20:27:40 31° NNE 20:31:37 10° N
Cosmos 1844 Rocket 4.4 20:29:58 10° NW 20:34:40 27° WSW 20:34:40 27° WSW
Resurs 01 Rocket 4.2 20:38:53 17° NW 20:38:53 17° NW 20:40:03 10° NNW
Cosmos 2278 Rocket 4.1 20:45:25 10° NNW 20:47:32 23° N 20:47:32 23° N
ATLAS 2AS CENTAUR R/B 4.5 21:46:05 10° NNW 21:49:00 25° NNW 21:49:00 25° NNW
